• In Hungary
  • List of Countries
  • For 7 days
  • Water Temperature
  • Satellite Maps
  • Weather Map
  • News
  • Weather Widgets
  • user-avatar
    Login

    Hourly Weather Lyubestovo

    Today, 26 September, Wednesday

    Time Temperature Precipitation Wind Pressure Humidity
    00:00 +2°C° 0 mm 3 mps 749 mmHg 86%
    01:00 +2°C° 0 mm 3 mps 749 mmHg 87%
    02:00 +2°C° 0 mm 3 mps 750 mmHg 87%
    03:00 +1°C° 0 mm 3 mps 750 mmHg 88%
    04:00 +1°C° 0 mm 3 mps 751 mmHg 88%
    05:00 0°C° 0 mm 3 mps 751 mmHg 88%
    06:00 +1°C° 0 mm 3 mps 752 mmHg 84%
    07:00 +2°C° 0 mm 3 mps 752 mmHg 80%
    08:00 +3°C° 0 mm 3 mps 753 mmHg 75%
    09:00 +5°C° 0 mm 4 mps 753 mmHg 70%
    10:00 +7°C° 0 mm 4 mps 753 mmHg 65%
    11:00 +8°C° 0 mm 4 mps 753 mmHg 59%
    12:00 +10°C° 0 mm 4 mps 752 mmHg 58%
    13:00 +11°C° 0 mm 4 mps 752 mmHg 56%
    14:00 +10°C° 0 mm 5 mps 752 mmHg 55%
    15:00 +10°C° 0 mm 4 mps 751 mmHg 58%
    16:00 +10°C° 0 mm 4 mps 751 mmHg 61%
    17:00 +8°C° 0 mm 4 mps 750 mmHg 65%
    18:00 +8°C° 0 mm 4 mps 750 mmHg 62%
    19:00 +7°C° 0 mm 5 mps 749 mmHg 60%
    20:00 +7°C° 0 mm 6 mps 749 mmHg 58%
    21:00 +7°C° 0.2 mm 6 mps 748 mmHg 61%
    22:00 +5°C° 0.2 mm 7 mps 747 mmHg 64%
    23:00 +5°C° 0.2 mm 7 mps 746 mmHg 68%

    Tomorrow, 27 September, Thursday

    Time Temperature Precipitation Wind Pressure Humidity
    00:00 +5°C° 0.5 mm 8 mps 745 mmHg 73%
    01:00 +4°C° 0.5 mm 8 mps 744 mmHg 78%
    02:00 +3°C° 0.5 mm 9 mps 743 mmHg 83%
    03:00 +3°C° 0.6 mm 9 mps 743 mmHg 85%
    04:00 +5°C° 0.6 mm 9 mps 742 mmHg 87%
    05:00 +5°C° 0.6 mm 9 mps 741 mmHg 89%
    06:00 +5°C° 0.4 mm 8 mps 741 mmHg 89%
    07:00 +6°C° 0.4 mm 8 mps 741 mmHg 90%
    08:00 +6°C° 0.4 mm 8 mps 741 mmHg 90%
    09:00 +8°C° 0.3 mm 7 mps 741 mmHg 88%
    10:00 +9°C° 0.3 mm 7 mps 741 mmHg 87%
    11:00 +10°C° 0.3 mm 6 mps 741 mmHg 85%
    12:00 +10°C° 0.1 mm 6 mps 741 mmHg 81%
    13:00 +11°C° 0.1 mm 6 mps 741 mmHg 77%
    14:00 +13°C° 0.1 mm 6 mps 741 mmHg 72%
    15:00 +12°C° 0.1 mm 5 mps 741 mmHg 73%
    16:00 +12°C° 0.1 mm 5 mps 742 mmHg 74%
    17:00 +11°C° 0.1 mm 4 mps 742 mmHg 75%
    18:00 +10°C° 0 mm 4 mps 742 mmHg 78%
    19:00 +10°C° 0 mm 4 mps 742 mmHg 81%
    20:00 +8°C° 0 mm 4 mps 743 mmHg 84%
    21:00 +7°C° 0 mm 4 mps 743 mmHg 85%
    22:00 +7°C° 0 mm 4 mps 743 mmHg 87%
    23:00 +7°C° 0 mm 4 mps 743 mmHg 88%

    Day after tomorrow, 28 September, Friday

    Time Temperature Precipitation Wind Pressure Humidity
    00:00 +7°C° 0 mm 4 mps 742 mmHg 88%
    01:00 +7°C° 0 mm 5 mps 742 mmHg 88%
    02:00 +7°C° 0 mm 6 mps 741 mmHg 88%
    03:00 +8°C° 0 mm 6 mps 741 mmHg 89%
    04:00 +9°C° 0 mm 7 mps 740 mmHg 90%
    05:00 +9°C° 0 mm 7 mps 739 mmHg 91%
    06:00 +10°C° 0.1 mm 7 mps 739 mmHg 89%
    07:00 +11°C° 0.1 mm 8 mps 739 mmHg 88%
    08:00 +11°C° 0.1 mm 8 mps 738 mmHg 87%
    09:00 +12°C° 0.2 mm 8 mps 738 mmHg 87%
    10:00 +12°C° 0.2 mm 8 mps 737 mmHg 86%
    11:00 +12°C° 0.2 mm 8 mps 737 mmHg 86%
    12:00 +12°C° 0.8 mm 8 mps 737 mmHg 86%
    13:00 +12°C° 0.8 mm 7 mps 738 mmHg 86%
    14:00 +13°C° 0.8 mm 6 mps 738 mmHg 86%
    15:00 +11°C° 0.2 mm 6 mps 739 mmHg 84%
    16:00 +10°C° 0.2 mm 5 mps 739 mmHg 83%
    17:00 +11°C° 0.2 mm 4 mps 740 mmHg 81%
    18:00 +9°C° 0 mm 3 mps 741 mmHg 84%
    19:00 +8°C° 0 mm 2 mps 741 mmHg 87%
    20:00 +6°C° 0 mm 2 mps 742 mmHg 90%
    21:00 +7°C° 0 mm 1 mps 743 mmHg 90%
    22:00 +6°C° 0 mm 1 mps 743 mmHg 90%
    23:00 +6°C° 0 mm 1 mps 743 mmHg 90%

    29 September, Saturday

    Time Temperature Precipitation Wind Pressure Humidity
    00:00 +6°C° 0 mm 1 mps 744 mmHg 90%
    01:00 +6°C° 0 mm 1 mps 744 mmHg 90%
    02:00 +5°C° 0 mm 1 mps 744 mmHg 90%
    03:00 +5°C° 0 mm 1 mps 745 mmHg 90%
    04:00 +4°C° 0 mm 0 mps 745 mmHg 90%
    05:00 +4°C° 0 mm 0 mps 745 mmHg 90%
    06:00 +5°C° 0 mm 0 mps 746 mmHg 87%
    07:00 +6°C° 0 mm 0 mps 746 mmHg 83%
    08:00 +7°C° 0 mm 0 mps 746 mmHg 80%
    09:00 +8°C° 0 mm 0 mps 747 mmHg 75%
    10:00 +10°C° 0 mm 0 mps 747 mmHg 70%
    11:00 +12°C° 0 mm 1 mps 747 mmHg 65%
    12:00 +12°C° 0.2 mm 1 mps 747 mmHg 65%
    13:00 +12°C° 0.2 mm 1 mps 747 mmHg 66%
    14:00 +12°C° 0.2 mm 1 mps 747 mmHg 67%
    15:00 +11°C° 0.1 mm 1 mps 748 mmHg 72%
    16:00 +10°C° 0.1 mm 1 mps 748 mmHg 77%
    17:00 +9°C° 0.1 mm 1 mps 748 mmHg 81%
    18:00 +9°C° 0 mm 1 mps 749 mmHg 83%
    19:00 +8°C° 0 mm 1 mps 749 mmHg 85%
    20:00 +7°C° 0 mm 1 mps 750 mmHg 87%
    21:00 +6°C° 0 mm 1 mps 750 mmHg 88%
    22:00 +6°C° 0 mm 1 mps 750 mmHg 89%
    23:00 +5°C° 0 mm 1 mps 750 mmHg 90%

    30 September, Sunday

    Time Temperature Precipitation Wind Pressure Humidity
    00:00 +5°C° 0 mm 1 mps 750 mmHg 90%
    01:00 +4°C° 0 mm 1 mps 751 mmHg 90%
    02:00 +4°C° 0 mm 1 mps 751 mmHg 90%
    03:00 +4°C° 0 mm 1 mps 751 mmHg 90%
    04:00 +3°C° 0 mm 1 mps 751 mmHg 90%
    05:00 +2°C° 0 mm 0 mps 751 mmHg 90%
    06:00 +3°C° 0 mm 0 mps 752 mmHg 86%
    07:00 +4°C° 0 mm 0 mps 752 mmHg 82%
    08:00 +6°C° 0 mm 0 mps 752 mmHg 78%
    09:00 +8°C° 0 mm 1 mps 752 mmHg 72%
    10:00 +10°C° 0 mm 1 mps 752 mmHg 66%
    11:00 +10°C° 0 mm 2 mps 752 mmHg 60%
    12:00 +12°C° 0 mm 2 mps 752 mmHg 57%
    13:00 +12°C° 0 mm 2 mps 751 mmHg 54%
    14:00 +11°C° 0 mm 3 mps 751 mmHg 51%
    15:00 +10°C° 0 mm 2 mps 751 mmHg 57%
    16:00 +9°C° 0 mm 2 mps 751 mmHg 63%
    17:00 +8°C° 0 mm 2 mps 750 mmHg 68%
    18:00 +7°C° 0 mm 2 mps 750 mmHg 71%
    19:00 +6°C° 0 mm 2 mps 750 mmHg 74%
    20:00 +5°C° 0 mm 2 mps 751 mmHg 78%
    21:00 +5°C° 0 mm 2 mps 750 mmHg 79%
    22:00 +4°C° 0 mm 2 mps 750 mmHg 80%
    23:00 +4°C° 0 mm 2 mps 750 mmHg 81%

    1 October, Monday

    Time Temperature Precipitation Wind Pressure Humidity
    00:00 +4°C° 0 mm 2 mps 750 mmHg 82%
    01:00 +4°C° 0 mm 2 mps 750 mmHg 82%
    02:00 +3°C° 0 mm 2 mps 750 mmHg 83%
    03:00 +3°C° 0 mm 2 mps 750 mmHg 83%
    04:00 +3°C° 0 mm 2 mps 749 mmHg 84%
    05:00 +3°C° 0 mm 2 mps 749 mmHg 85%
    06:00 +4°C° 0 mm 2 mps 749 mmHg 80%
    07:00 +5°C° 0 mm 2 mps 749 mmHg 76%
    08:00 +5°C° 0 mm 3 mps 749 mmHg 72%
    09:00 +8°C° 0 mm 3 mps 749 mmHg 66%
    10:00 +9°C° 0 mm 3 mps 749 mmHg 60%
    11:00 +11°C° 0 mm 3 mps 749 mmHg 54%
    12:00 +11°C° 0 mm 3 mps 749 mmHg 53%
    13:00 +12°C° 0 mm 3 mps 748 mmHg 52%
    14:00 +12°C° 0 mm 3 mps 748 mmHg 50%
    15:00 +11°C° 0 mm 3 mps 747 mmHg 56%
    16:00 +10°C° 0 mm 2 mps 747 mmHg 62%
    17:00 +10°C° 0 mm 1 mps 747 mmHg 67%
    18:00 +9°C° 0 mm 1 mps 747 mmHg 69%
    19:00 +8°C° 0 mm 1 mps 747 mmHg 72%
    20:00 +7°C° 0 mm 1 mps 747 mmHg 74%
    21:00 +6°C° 0 mm 2 mps 747 mmHg 74%
    22:00 +5°C° 0 mm 2 mps 747 mmHg 75%
    23:00 +5°C° 0 mm 2 mps 747 mmHg 75%
    Show more